Theta_e
320 321 321 322 324 321 320 320 322 324 321 323 323 324 323 327 335 334 338 348 348 347 345 344 342 338 337 336 337 337 337 336 336 335 335 333 334 335 337 338 339 342 344
318 317 318 319 319 319 320 320 322 319 319 319 319 319 319 321 325 328 333 338 347 346 346 344 342 339 339 340 338 337 336 334 335 335 333 333 332 333 334 334 335 335 335
317 315 316 317 317 317 318 319 319 318 318 319 318 319 319 318 319 319 323 333 338 345 343 341 339 339 340 340 338 337 334 337 334 334 335 334 332 333 333 333 332 335 336
317 315 315 316 317 317 317 317 316 315 316 316 317 317 315 317 316 317 326 332 332 333 337 337 336 339 338 338 337 337 339 338 333 334 334 333 334 332 333 334 334 333 334
318 315 315 316 317 317 316 316 315 314 314 316 316 315 315 315 316 327 327 328 331 331 331 335 336 337 337 337 337 337 336 336 334 334 334 333 333 334 334 334 334 334 334
314 311 312 312 314 314 315 314 312 312 311 313 314 312 312 314 316 322 323 323 324 327 327 328 328 330 332 331 330 331 332 332 330 329 328 330 332 334 333 333 334 334 335
313 310 310 311 312 313 316 319 312 310 310 314 308 307 310 314 316 316 322 319 318 321 325 326 327 323 323 327 326 326 326 326 325 324 323 324 325 327 330 333 335 335 335
312 312 313 314 312 316 314 312 311 310 312 314 307 304 303 309 312 314 317 318 318 320 322 322 321 322 321 320 319 323 322 321 322 322 321 321 322 323 327 329 331 334 335
312 313 314 315 315 314 314 315 313 312 309 311 313 306 301 300 307 312 312 313 317 319 320 319 319 319 319 317 317 319 318 317 318 318 317 317 319 321 322 324 326 328 329
310 314 314 314 315 314 313 314 311 308 306 305 308 310 311 310 300 300 307 309 309 313 315 316 314 313 316 316 317 317 316 316 316 314 314 314 315 316 317 319 321 322 325
312 312 313 314 313 312 313 309 308 307 306 304 302 303 302 302 301 300 297 299 303 304 312 314 313 313 311 309 308 312 315 313 311 311 313 313 313 314 314 315 316 318 320
311 312 313 311 310 310 308 305 311 306 307 303 302 301 300 299 297 296 294 294 294 299 309 311 310 308 307 308 313 314 314 312 311 310 312 312 312 313 314 314 314 315 317
307 308 309 311 307 305 307 305 306 305 305 303 302 301 301 299 300 297 295 294 293 296 300 310 309 309 308 304 307 312 314 316 313 314 313 312 311 311 312 312 313 313 314
307 310 311 310 306 306 307 304 305 304 303 305 302 303 301 300 301 301 297 295 293 294 295 298 302 302 302 306 308 315 306 316 316 315 315 315 312 311 311 310 311 311 312
308 309 308 308 310 306 305 306 305 306 306 305 302 303 304 300 301 303 301 297 295 291 293 296 297 303 302 303 306 304 304 311 314 315 314 315 314 312 311 310 310 310 310
303 304 304 307 309 306 308 305 308 305 304 305 306 303 304 304 303 299 297 296 295 294 291 295 297 297 301 305 306 304 305 313 311 314 316 314 313 313 313 312 309 310 309
302 303 304 308 307 304 303 303 303 304 304 305 305 304 304 304 299 298 296 295 293 293 291 294 294 298 298 299 302 301 304 303 303 311 313 312 312 312 312 312 311 310 310
302 302 305 305 302 301 300 300 301 304 302 303 304 305 301 303 297 295 294 292 292 292 291 291 294 297 296 297 299 300 303 305 302 309 312 311 310 310 310 310 310 310 309
304 302 302 303 301 300 299 299 301 305 306 302 300 302 299 297 294 293 292 291 291 294 293 292 293 294 294 298 297 298 299 299 304 309 309 309 309 309 309 309 309 309 308
307 301 302 302 299 298 297 298 299 299 301 301 300 301 298 297 295 293 293 291 293 291 292 292 292 292 293 296 296 295 294 296 296 301 304 305 306 307 309 309 308 309 307
307 302 302 302 297 296 297 294 296 297 298 302 301 301 300 301 303 301 295 292 293 291 292 291 290 291 292 291 291 293 291 292 293 294 294 295 296 297 298 303 306 308 308
305 302 301 302 300 298 299 301 300 295 298 300 300 302 300 303 300 302 304 305 302 294 292 290 289 289 289 289 291 291 290 289 288 295 293 295 295 294 296 298 305 305 304
303 301 300 301 299 295 298 298 301 294 298 299 298 299 299 301 299 294 298 302 301 303 303 298 290 290 290 292 291 290 291 290 289 294 292 290 292 292 295 300 304 305 304
301 299 299 300 301 299 300 298 300 295 297 299 297 297 297 299 298 296 293 294 296 296 296 298 294 295 295 294 294 297 295 292 291 293 293 287 290 291 294 297 302 304 302
300 300 301 300 300 300 301 299 297 295 296 298 298 299 298 296 299 298 293 293 294 295 301 302 301 299 298 298 298 295 294 292 289 292 292 294 289 289 292 293 299 303 302
302 302 303 301 303 301 302 300 298 297 295 296 297 298 300 297 297 296 292 292 291 292 293 295 294 293 294 296 297 294 293 290 290 288 291 291 293 293 292 294 299 300 300
Wind_Speed
5 5 6 6 4 6 5 6 6 6 7 9 8 7 10 9 10 2 3 16 17 16 16 13 12 10 7 7 6 7 7 6 7 8 9 5 3 3 4 6 7 6 9
4 5 6 6 5 4 5 6 5 5 6 7 9 8 7 7 6 7 4 6 15 15 14 15 11 6 5 7 6 6 6 5 7 8 8 7 6 8 3 3 5 7 8
6 6 5 6 5 5 7 6 5 5 7 7 9 10 8 6 6 6 3 4 5 15 12 8 6 7 9 11 10 10 7 11 11 7 6 9 8 6 5 8 3 7 9
6 6 5 5 5 5 4 4 4 5 5 5 7 7 5 5 7 7 5 5 4 4 1 4 6 10 10 9 9 11 14 12 8 8 7 6 11 10 8 8 7 6 11
7 7 7 7 9 7 5 4 4 4 6 8 7 6 6 5 5 4 6 6 7 4 3 3 3 10 17 13 13 19 19 20 23 15 12 9 11 11 11 11 12 12 12
7 6 5 6 6 5 5 4 5 5 3 4 6 6 7 5 3 5 6 5 5 6 6 6 6 8 16 16 14 15 16 17 18 14 13 17 12 15 19 15 17 17 15
6 6 4 6 6 5 6 7 4 5 4 8 5 5 3 8 9 7 6 7 7 7 6 7 5 4 5 16 16 16 16 16 14 13 13 12 10 9 11 11 23 28 23
7 6 7 7 6 5 7 6 5 4 3 7 4 1 5 4 8 7 7 6 5 6 6 7 5 5 4 4 8 13 14 14 13 13 14 14 12 12 14 14 16 15 15
6 6 6 7 6 5 4 4 6 7 5 6 7 3 4 3 5 4 8 4 5 4 4 5 5 6 6 5 6 8 10 11 13 12 12 12 12 13 14 15 14 13 11
6 6 6 6 5 4 5 4 5 4 5 6 5 6 4 1 1 5 5 5 6 2 4 4 5 5 5 3 7 8 8 10 11 11 11 12 12 13 14 15 16 17 15
5 5 5 5 5 3 4 6 5 6 4 3 4 4 4 3 3 3 4 7 8 7 2 4 4 4 5 4 2 5 4 3 4 6 9 11 12 12 12 13 15 16 16
3 5 5 5 6 8 6 5 6 6 5 5 4 4 2 2 3 3 2 3 2 5 2 4 4 2 2 1 3 4 3 2 2 3 5 7 9 11 13 14 15 15 16
3 5 5 5 3 5 5 6 6 6 4 4 4 3 3 4 2 3 2 3 3 3 4 2 1 3 2 1 2 4 6 5 7 9 8 7 7 8 11 13 15 16 15
3 4 5 3 6 6 6 4 3 4 5 4 7 6 3 4 4 5 3 3 5 4 2 2 3 3 4 3 6 7 2 9 9 12 13 11 10 9 10 11 13 14 14
2 5 5 4 4 5 5 2 1 2 3 3 4 5 3 3 5 6 5 3 3 4 6 4 2 3 5 4 6 4 5 10 12 13 15 11 10 11 12 12 12 12 13
5 6 6 6 3 7 7 7 4 4 5 4 5 7 5 4 6 5 4 4 3 0 3 2 6 4 5 6 8 3 4 9 12 15 11 7 11 12 12 13 13 14 12
4 5 4 6 8 7 7 7 7 7 7 7 5 5 6 6 4 5 4 3 3 2 2 7 3 8 8 10 6 5 5 5 5 11 8 9 11 12 13 14 14 15 13
3 4 5 6 6 6 7 7 7 7 5 4 5 6 5 4 5 4 4 6 3 4 1 7 6 7 5 3 3 3 4 6 5 11 15 12 15 12 11 12 14 14 13
4 4 4 7 6 6 7 7 6 7 5 4 3 5 3 4 3 3 4 5 4 4 4 3 6 3 3 3 3 3 4 5 6 15 13 12 12 10 11 12 11 13 13
5 4 4 7 5 5 5 6 6 6 6 5 3 2 3 3 1 3 4 5 5 5 5 4 4 4 3 5 2 4 4 2 4 7 10 6 11 12 12 9 7 10 4
3 5 4 5 4 3 2 3 4 6 6 6 6 1 4 5 4 2 2 6 5 4 4 4 4 3 4 4 6 3 3 3 4 4 3 3 3 5 6 8 7 9 9
4 5 3 2 5 2 2 3 4 5 6 6 6 6 3 4 2 5 8 12 8 3 4 3 3 3 5 4 3 3 2 2 4 4 3 6 3 4 5 4 8 7 7
4 2 1 2 4 4 6 7 7 5 6 7 5 4 6 3 1 4 8 12 10 11 12 8 4 5 5 4 3 3 2 3 4 5 2 4 2 4 5 5 10 11 9
3 3 4 5 4 5 8 8 8 6 6 6 6 6 2 4 5 7 5 7 7 6 7 6 4 6 5 5 4 6 6 5 4 4 2 4 3 4 5 6 12 9 5
3 4 5 7 6 7 11 9 7 6 6 7 7 3 5 4 7 7 6 8 7 7 6 10 9 6 5 6 8 5 6 7 6 2 3 2 2 4 4 4 1 7 9
4 5 6 7 8 8 10 12 9 5 6 5 7 5 9 7 8 8 6 6 6 6 5 7 6 6 8 8 8 2 4 6 4 3 2 4 3 2 3 3 1 3 3
Wind_Direction
6 345 338 331 11 2 353 347 330 330 340 334 337 343 337 342 329 190 216 210 185 186 194 186 186 178 184 189 175 174 178 173 181 169 178 166 195 169 120 106 86 16 301
7 355 339 346 358 349 347 331 319 343 348 341 332 332 319 318 323 324 291 223 203 196 193 191 190 200 209 217 221 236 231 194 177 184 182 182 216 270 314 75 39 61 343
9 355 338 341 339 340 334 335 354 1 350 332 321 319 320 320 330 337 332 266 252 197 191 191 203 282 265 268 259 264 272 254 246 200 210 219 214 216 278 294 351 358 321
14 354 342 331 332 336 336 350 360 353 328 318 310 305 304 320 325 341 27 35 69 69 103 279 281 284 304 294 291 293 304 271 252 263 255 278 240 235 245 277 292 293 300
16 12 4 359 360 350 359 6 360 357 342 324 321 329 327 321 334 53 55 57 71 88 76 52 89 77 64 64 43 61 42 53 47 26 307 270 301 316 289 278 276 281 285
53 44 1 358 358 348 353 353 5 343 316 303 344 331 319 313 81 48 45 37 52 78 74 79 62 81 73 63 49 48 46 46 41 42 30 26 359 301 274 292 283 262 250
21 46 351 360 351 344 344 7 344 338 334 355 331 340 350 47 53 36 40 32 29 34 87 100 105 76 76 76 54 46 42 38 35 26 21 22 3 353 346 320 266 267 264
17 27 14 353 342 347 13 19 357 355 336 2 350 2 5 350 8 25 37 32 30 58 59 67 73 104 103 94 83 65 48 35 27 20 13 10 359 349 351 334 345 324 271
7 15 10 1 349 8 1 13 10 25 12 0 12 59 13 356 325 13 2 359 23 73 82 103 92 91 99 96 80 64 50 38 32 21 14 5 357 353 346 336 339 337 336
1 13 7 352 2 354 19 11 16 17 35 22 354 2 21 126 54 340 331 347 342 358 122 78 72 58 80 81 60 51 42 38 33 24 15 6 359 355 349 341 337 331 336
7 358 356 347 7 357 12 28 21 22 21 45 27 341 352 349 19 51 333 345 357 355 52 122 108 83 89 100 76 9 33 43 36 13 358 352 350 350 347 343 337 332 320
358 347 349 357 2 21 16 18 20 34 47 40 23 13 31 9 332 28 7 319 316 323 333 37 50 78 79 100 114 41 38 227 267 282 299 320 332 341 346 346 340 330 323
341 339 351 2 38 21 25 37 29 28 29 30 29 353 17 8 13 337 30 312 352 326 347 32 33 45 10 335 290 350 319 328 244 263 273 283 292 314 326 332 333 328 322
290 295 353 51 63 36 33 33 36 14 40 30 22 14 2 11 12 29 16 15 347 339 24 360 0 6 330 291 276 259 262 292 264 270 270 264 259 274 293 309 315 315 315
334 14 24 71 68 38 22 17 338 10 20 13 17 10 14 13 27 20 33 35 14 329 323 328 306 303 308 296 262 250 252 264 287 291 276 256 251 265 279 294 301 299 304
25 20 8 5 53 42 21 5 351 26 19 6 32 58 29 25 34 10 8 4 21 139 300 308 322 290 283 291 272 312 260 313 326 317 303 233 230 248 268 280 289 288 296
62 19 3 22 65 42 16 11 7 360 31 43 44 39 44 40 33 12 358 345 336 349 342 316 282 308 315 316 332 345 340 327 316 321 275 236 243 253 261 270 268 274 285
91 46 8 57 67 50 24 14 4 9 50 32 29 49 58 47 28 4 352 346 328 311 238 298 303 319 332 325 299 354 319 306 312 312 316 258 258 251 262 259 264 272 270
115 61 29 88 74 56 33 5 10 359 322 49 3 98 101 89 21 341 327 329 315 314 308 280 299 292 289 304 329 316 305 315 317 311 311 310 305 277 251 259 283 282 263
110 72 46 111 95 68 48 14 357 344 340 320 354 95 143 143 146 320 323 315 311 312 295 297 288 279 280 285 277 267 297 279 290 306 308 334 342 328 301 284 298 304 233
81 99 60 111 108 82 50 349 338 327 314 328 295 247 186 171 192 30 312 305 313 298 304 297 297 292 290 312 311 284 290 303 297 261 292 299 318 304 303 295 288 299 205
88 81 42 83 165 152 247 283 285 312 314 312 306 264 197 182 357 359 316 310 328 319 301 276 281 284 277 268 270 261 278 322 310 287 326 298 274 293 287 279 275 236 188
90 106 262 271 195 225 253 285 309 321 302 294 287 317 272 180 22 325 310 304 307 312 311 310 259 277 277 287 273 279 283 267 256 279 303 287 276 289 277 285 267 244 217
149 201 254 260 205 242 241 275 304 318 316 295 306 299 308 191 243 255 296 289 285 294 289 297 286 285 293 320 303 309 292 268 287 281 315 285 292 287 292 283 275 218 223
251 240 236 246 239 249 231 234 278 297 296 296 299 325 180 224 273 313 308 277 297 301 311 323 317 341 22 9 7 347 329 316 303 260 279 247 312 305 296 307 43 169 211
248 249 267 236 239 246 242 219 226 249 274 286 295 299 256 251 300 319 264 281 315 293 311 324 329 344 345 334 337 345 316 309 316 297 309 348 287 275 312 294 234 225 233